Weather WX

World > North America > United States > North Carolina

Chapel Hill, North Carolina Regional Weather

Lat: 35.93N, Lon: 79.04W
Wx Zone: NCZ024
Warning FLW WEATHER ALERT - (More Info. Click Here) Warning
Feedback

Chapel Hill, NC Regional Weather

Expires:201907180900;;241003
ASUS41 KLWX 180811
RWRLWX

REGIONAL WEATHER ROUNDUP
NATIONAL WEATHER SERVICE BALTIMORE MD/WASHINGTON DC
400 AM EDT THU JUL 18 2019

Note: "FAIR" indicates few or no clouds below 12,000 feet
with no significant weather and/or obstructions to visibility.
 TC=TEMPERATURE CELSIUS

 * =Non NWS site. Station does not report precipitation (e.g. rain,
    snow, etc.), thunder, or fog.


NCZ024-NYZ072-PAZ021-071-VAZ022-071-180900-
OTHER REGIONAL OBSERVATIONS
  
CITY           SKY/WX    TMP DP  RH WIND       PRES   REMARKS
NEW YORK CITY  LGT RAIN  74  73  97 VRB6      29.92F                  
PHILADELPHIA   CLOUDY    76  73  91 SW6       29.88F                  
PITTSBURGH     FOG       70  70 100 NW3       29.92S VSB 1/4          
ROANOKE        FAIR      75  69  81 NW8       29.99F                  
RICHMOND       MOCLDY    77  74  90 SW9       29.90F                  
RALEIGH        MOCLDY    76  74  93 W5        29.97S                  

$$


SKY/WX - Weather  TMP - Temperature  DP - Dew Point  RH - Relative Humidity
WIND - Wind Direction/Speed PRES - Barometric Pressure VSB - Visibility
WCI - Wind Chill Index E13G22 Wind - East Wind 13 mph/Gusts of 22 mph